Flag for Laos Weather past 2 weeks in Vientiane, Laos

Now
81 °F

Fog.


Feels Like: 85 °F
Forecast: 72 / 90 °F
Wind: 2 mph from North

Location: Vientiane Airport

Current Time: Mar 28, 2015 at 12:38:39 AM

Latest Report: Mar 27, 2015 at 10:30 PM


Visibility: 2 mi

Pressure: 29.98 "Hg

Humidity: 74%

Dew point: 72 °F

Location of VientianeLocation

Historic Weather in Vientiane — Graph

°F

Vientiane temperature yesterday

Maximum temperature yesterday: 91 °F (at 4:00 PM)
Minimum temperature yesterday: 72 °F (at 6:00 AM)
Average temperature yesterday: 82 °F

Past Weeks' High & Low Weather Summary

 TemperatureHumidityPressure
High99 °F (Mar 19, 4:00 PM)100% (Mar 23, 7:00 AM)30.12 "Hg (Mar 23, 7:00 AM)
Low72 °F (Mar 23, 7:00 AM)43% (Mar 25, 12:30 PM)29.65 "Hg (Mar 18, 3:30 PM)
Average84 °F67%29.88 "Hg
* Reported Mar 12 10:00 PM — Mar 27 10:30 PM, Vientiane, Weather by CustomWeather, © 2015

Note: Actual official high and low records may vary slightly from our data, if they occured in-between our weather recording intervals... More about our weather records

Advertising

Vientiane weather history for previous 24 hours

 ConditionsComfort  
Time TempWeatherWind HumidityBarometerVisibility
10:30 PM
Fri, Mar 27
81 °FFog.2 mph74%29.98 "Hg2 mi
10:00 PM81 °FFog.2 mph74%29.98 "Hg2 mi
9:30 PM82 °FFog.2 mph58%29.95 "Hg2 mi
6:30 PM86 °FPassing clouds.2 mph52%29.89 "Hg4 mi
6:00 PM88 °FPassing clouds.2 mph49%29.89 "HgN/A
4:00 PM91 °FScattered clouds.2 mph44%29.92 "HgN/A
3:30 PM90 °FPartly sunny.2 mph46%29.98 "HgN/A
3:00 PM90 °FPartly sunny.2 mph46%29.98 "HgN/A
2:30 PM90 °FPartly sunny.2 mph43%29.98 "HgN/A
2:00 PM90 °FPartly sunny.2 mph43%29.98 "HgN/A
1:30 PM88 °FScattered clouds.2 mph46%30.01 "HgN/A
1:00 PM88 °FScattered clouds.2 mph46%30.01 "HgN/A
12:30 PM86 °FPassing clouds.2 mph52%30.04 "HgN/A
12:00 PM86 °FPassing clouds.2 mph52%30.04 "HgN/A
11:30 AM86 °FScattered clouds.2 mph49%30.07 "HgN/A
10:30 AM82 °FPartly sunny.2 mph55%30.09 "HgN/A
10:00 AM82 °FPartly sunny.2 mph55%30.09 "HgN/A
9:30 AM77 °FScattered clouds.2 mph65%30.09 "HgN/A
9:00 AM77 °FScattered clouds.2 mph65%30.09 "HgN/A
8:30 AM75 °FPartly sunny.2 mph74%30.09 "HgN/A
8:00 AM75 °FPartly sunny.2 mph74%30.09 "HgN/A
7:30 AM73 °FFog.2 mph74%30.07 "Hg5 mi
7:00 AM72 °FFog.2 mph78%30.07 "Hg5 mi
6:30 AM72 °FPartly sunny.2 mph78%30.04 "Hg4 mi
6:00 AM72 °FFog.2 mph78%30.04 "Hg3 mi
Weather by CustomWeather, © 2015

See weather overviewHow to use our weather pages